KC3LDA Weather Reports


time (UTC)temp
F
wind
direction
speed
knots
gust
knots
rain 1hr
in
rain 24hr
in
rain mn
in
humidity
%
barometer
mb
20260506143139 57 219 8.7 17.4 0.00 0.00 0.00 94 1006.9
20260506142637 57 171 7.8 19.1 0.00 0.00 0.00 95 1007.1
20260506142135 57 177 9.6 19.1 0.00 0.00 0.00 95 1007.2
20260506141632 57 189 13.0 19.1 0.00 0.00 0.00 94 1007.5
20260506141130 57 181 7.8 19.1 0.00 0.00 0.00 94 1007.5
20260506140627 57 208 13.0 20.9 0.00 0.00 0.00 94 1007.3
20260506140125 57 213 8.7 16.5 0.00 0.00 0.00 94 1007.8
20260506135621 57 177 20.0 20.0 0.00 0.00 0.00 94 1007.5
20260506135118 58 212 13.9 14.8 0.00 0.00 0.00 93 1007.7
20260506134614 57 192 13.0 20.9 0.00 0.00 0.00 93 1007.8
20260506134110 57 180 5.2 22.6 0.00 0.00 0.00 94 1007.7
20260506133608 57 194 18.2 26.1 0.00 0.00 0.00 95 1007.5
20260506133104 57 180 7.0 20.0 0.00 0.00 0.00 95 1007.8
20260506132602 57 193 7.8 17.4 0.00 0.00 0.00 94 1007.4
20260506132059 57 212 6.1 19.1 0.00 0.00 0.00 95 1007.6
20260506131556 57 197 4.3 18.2 0.00 0.00 0.00 95 1007.3
20260506131052 57 174 15.6 19.1 0.00 0.00 0.00 95 1007.6
20260506130549 56 198 6.1 19.1 0.00 0.00 0.00 96 1007.6
20260506130047 56 231 7.0 13.9 0.00 0.00 0.00 96 1007.4
20260506125545 56 193 8.7 20.9 0.00 0.00 0.00 96 1007.5
20260506125042 56 178 7.0 14.8 0.00 0.00 0.00 96 1007.4
20260506124540 56 183 8.7 14.8 0.00 0.00 0.00 96 1007.5
20260506124037 56 182 8.7 23.5 0.00 0.00 0.00 96 1007.4
20260506123535 56 192 6.1 18.2 0.00 0.00 0.00 95 1007.5
20260506123033 57 212 7.8 19.1 0.00 0.00 0.00 95 1007.6
20260506122529 57 196 6.1 26.1 0.00 0.00 0.00 95 1007.4
20260506122028 57 175 10.4 19.1 0.00 0.00 0.00 95 1007.6
20260506121525 57 187 5.2 17.4 0.00 0.00 0.00 95 1007.8
20260506121021 56 189 9.6 16.5 0.00 0.00 0.00 96 1007.8
20260506120519 56 206 8.7 22.6 0.00 0.00 0.00 96 1007.7
20260506120016 56 177 3.5 19.1 0.00 0.00 0.00 96 1007.9
20260506115514 56 194 6.1 17.4 0.00 0.00 0.00 96 1007.9
20260506115012 56 207 8.7 17.4 0.00 0.00 0.00 96 1007.8
20260506114509 56 191 7.0 22.6 0.00 0.00 0.00 96 1007.8
20260506114008 56 189 7.8 18.2 0.00 0.00 0.00 96 1007.7
20260506113505 56 214 6.1 14.8 0.00 0.00 0.00 96 1007.6
20260506113002 56 175 9.6 18.2 0.00 0.00 0.00 96 1007.6
20260506112459 56 202 7.0 16.5 0.00 0.00 0.00 97 1007.6
20260506111956 56 191 4.3 15.6 0.00 0.00 0.00 97 1007.6
20260506111454 56 192 9.6 18.2 0.00 0.00 0.00 97 1007.5
20260506110951 56 191 7.8 20.9 0.00 0.00 0.00 97 1007.7
20260506110449 55 185 3.5 15.6 0.00 0.00 0.00 98 1008.1
20260506105945 55 176 7.0 13.9 0.00 0.00 0.00 98 1007.9
20260506105442 55 207 12.2 13.9 0.00 0.00 0.00 98 1007.7
20260506104939 55 200 4.3 12.2 0.00 0.00 0.00 98 1007.7
20260506104437 55 186 9.6 14.8 0.00 0.00 0.00 98 1007.5
20260506103935 55 187 10.4 16.5 0.00 0.00 0.00 98 1007.3
20260506103432 55 181 7.0 13.9 0.00 0.00 0.00 98 1007.6
20260506102929 55 180 13.0 21.7 0.00 0.00 0.00 98 1007.4
20260506102427 55 214 7.0 24.3 0.00 0.00 0.00 98 1007.7
20260506101924 55 210 10.4 17.4 0.00 0.00 0.00 98 1007.3
20260506101420 55 201 7.0 16.5 0.00 0.00 0.00 98 1007.2
20260506100918 55 200 9.6 15.6 0.00 0.00 0.00 98 1007.5
20260506100416 55 181 6.1 19.1 0.00 0.00 0.00 98 1007.2
20260506095913 55 205 10.4 17.4 0.00 0.00 0.00 98 1007.3
20260506095412 55 197 6.1 18.2 0.00 0.00 0.00 98 1007.1
20260506094908 55 214 10.4 26.1 0.00 0.00 0.00 98 1007.3
20260506094407 55 168 9.6 15.6 0.00 0.00 0.00 98 1007.3
20260506093904 55 211 9.6 16.5 0.00 0.00 0.00 98 1007.4
20260506093401 55 188 11.3 18.2 0.00 0.00 0.00 98 1007.4
20260506092859 55 176 10.4 22.6 0.00 0.00 0.00 98 1007.4
20260506092357 55 198 6.1 16.5 0.00 0.00 0.00 98 1007.5
20260506091853 55 215 6.1 17.4 0.00 0.00 0.00 98 1007.4
20260506091351 55 197 10.4 15.6 0.00 0.00 0.00 98 1007.4
20260506090848 55 209 8.7 17.4 0.00 0.00 0.00 98 1007.6
20260506090345 55 185 12.2 21.7 0.00 0.00 0.00 98 1007.6
20260506085842 55 202 7.8 17.4 0.00 0.00 0.00 98 1007.6
20260506085338 55 196 9.6 21.7 0.00 0.00 0.00 98 1007.7
20260506084835 55 208 10.4 17.4 0.00 0.00 0.00 98 1007.6
20260506084332 55 189 7.8 17.4 0.00 0.00 0.00 98 1007.6
20260506083828 55 177 6.1 18.2 0.00 0.00 0.00 98 1007.8
20260506083326 55 211 7.8 13.9 0.00 0.00 0.00 98 1007.8
20260506082823 55 183 4.3 13.0 0.00 0.00 0.00 97 1007.7
20260506082320 55 203 8.7 13.0 0.00 0.00 0.00 97 1007.6
20260506081816 55 219 7.0 18.2 0.00 0.00 0.00 97 1007.8
20260506081314 55 194 7.8 13.9 0.00 0.00 0.00 97 1007.9
20260506080812 55 193 7.0 17.4 0.00 0.00 0.00 97 1007.8
20260506080307 55 202 12.2 16.5 0.00 0.00 0.00 97 1007.7
20260506073251 55 201 5.2 13.9 0.00 0.00 0.00 96 1008.0
20260506072749 55 204 7.8 17.4 0.00 0.00 0.00 96 1007.9
20260506072246 55 206 5.2 17.4 0.00 0.00 0.00 96 1008.2
20260506071744 55 184 8.7 12.2 0.00 0.00 0.00 96 1007.9
20260506071241 55 214 11.3 15.6 0.00 0.00 0.00 96 1008.1
20260506070738 55 209 7.8 18.2 0.00 0.00 0.00 96 1008.1
20260506070235 55 193 9.6 17.4 0.00 0.00 0.00 96 1007.9
20260506062212 55 173 6.1 16.5 0.00 0.00 0.00 95 1008.1
20260506061708 55 186 20.9 20.9 0.00 0.00 0.00 95 1008.1
20260506061206 55 172 6.1 17.4 0.00 0.00 0.00 95 1008.2
20260506060705 56 196 13.0 20.9 0.00 0.00 0.00 95 1008.1
20260506060201 56 195 12.2 19.1 0.00 0.00 0.00 95 1007.8
20260506051133 56 204 15.6 19.1 0.00 0.00 0.00 93 1008.3
20260506050631 57 183 6.1 20.0 0.00 0.00 0.00 92 1008.0
20260506050128 57 191 8.7 16.5 0.00 0.00 0.00 92 1008.2
20260506045121 57 181 12.2 16.5 0.00 0.00 0.00 92 1008.0
20260506044619 57 220 14.8 23.5 0.00 0.00 0.00 92 1008.3
20260506044116 57 206 7.0 20.9 0.00 0.00 0.00 92 1008.3
20260506043613 57 191 9.6 23.5 0.00 0.00 0.00 92 1008.1
20260506043111 57 187 4.3 17.4 0.00 0.00 0.00 93 1008.2
20260506042610 56 194 13.0 18.2 0.00 0.00 0.00 92 1008.5
20260506042107 57 227 9.6 16.5 0.00 0.00 0.00 93 1008.2
20260506041606 57 207 4.3 19.1 0.00 0.00 0.00 92 1008.3
20260506041102 57 190 13.0 19.1 0.00 0.00 0.00 92 1008.5
20260506040600 57 187 10.4 20.0 0.00 0.00 0.00 92 1008.4
20260506040056 57 189 7.8 20.0 0.00 0.00 0.00 92 1008.4
20260506035553 57 215 6.1 20.0 0.00 0.00 0.00 91 1008.5
20260506035050 57 188 9.6 20.0 0.00 0.00 0.00 91 1008.5
20260506034547 57 197 7.8 21.7 0.00 0.00 0.00 91 1008.2
20260506034044 57 190 16.5 24.3 0.00 0.00 0.00 91 1008.2
20260506033541 57 178 8.7 22.6 0.00 0.00 0.00 91 1008.2
20260506033038 57 174 4.3 22.6 0.00 0.00 0.00 90 1008.1
20260506032536 57 190 9.6 19.1 0.00 0.00 0.00 90 1008.2
20260506032032 57 187 7.8 27.8 0.00 0.00 0.00 90 1008.1
20260506031530 57 211 17.4 24.3 0.00 0.00 0.00 90 1008.4
20260506031027 57 218 8.7 17.4 0.00 0.00 0.00 90 1008.1
20260506030525 57 174 8.7 30.4 0.00 0.00 0.00 90 1008.1
20260506030022 57 188 8.7 19.1 0.00 0.00 0.00 90 1008.2
20260506025519 58 199 7.8 19.1 0.00 0.00 0.00 90 1008.3
20260506025015 58 213 13.9 16.5 0.00 0.00 0.00 90 1008.2
20260506024512 58 203 8.7 18.2 0.00 0.00 0.00 91 1008.5
20260506024008 57 201 4.3 20.9 0.00 0.00 0.00 91 1008.5
20260506023504 58 208 7.0 21.7 0.00 0.00 0.00 91 1008.4
20260506023001 58 196 5.2 16.5 0.00 0.00 0.00 90 1008.4
20260506022459 58 196 8.7 19.1 0.00 0.00 0.00 90 1008.5
20260506021956 58 189 7.8 20.0 0.00 0.00 0.00 90 1008.3
20260506021454 58 206 16.5 19.1 0.00 0.00 0.00 90 1008.5
20260506020951 58 141 8.7 19.1 0.00 0.00 0.00 90 1008.5
20260506020448 58 209 13.0 21.7 0.00 0.00 0.00 90 1008.4
20260506015945 58 215 5.2 16.5 0.00 0.00 0.00 90 1008.4
20260506015443 58 214 4.3 19.1 0.00 0.00 0.00 89 1008.3
20260506014940 58 200 6.1 19.1 0.00 0.00 0.00 89 1008.3
20260506014437 58 216 7.8 20.0 0.00 0.00 0.00 89 1008.2
20260506013933 58 198 9.6 20.9 0.00 0.00 0.00 89 1008.0
20260506013431 58 191 11.3 15.6 0.00 0.00 0.00 88 1008.1
20260506012927 58 205 11.3 20.9 0.00 0.00 0.00 88 1008.1
20260506012424 58 212 14.8 20.9 0.00 0.00 0.00 88 1008.0
20260506011921 58 206 5.2 15.6 0.00 0.00 0.00 89 1008.1
20260506011418 58 207 7.0 18.2 0.00 0.00 0.00 89 1008.1
20260506010915 58 180 11.3 27.8 0.00 0.00 0.00 88 1008.1
20260506010414 58 170 4.3 20.9 0.00 0.00 0.00 87 1008.1
20260506005909 59 200 10.4 19.1 0.00 0.00 0.00 87 1007.9
20260506005408 59 223 9.6 25.2 0.00 0.00 0.00 87 1007.8
20260506004902 59 187 7.8 20.9 0.00 0.00 0.00 86 1007.7
20260506004401 59 196 12.2 22.6 0.00 0.00 0.00 87 1007.9
20260506003856 59 211 10.4 24.3 0.00 0.00 0.00 86 1007.6
20260506003353 59 203 7.8 17.4 0.00 0.00 0.00 86 1007.5
20260506002849 59 211 14.8 19.1 0.00 0.00 0.00 86 1007.7
20260506002345 60 193 7.8 19.1 0.00 0.00 0.00 85 1007.3
20260506001841 60 214 12.2 26.1 0.00 0.00 0.00 83 1007.4
20260506001338 60 190 24.3 24.3 0.00 0.00 0.00 83 1007.3
20260506000835 60 208 3.5 23.5 0.00 0.00 0.00 84 1007.4
20260506000333 59 211 6.1 22.6 0.00 0.00 0.00 85 1007.1
20260505235830 59 190 10.4 22.6 0.00 0.00 0.00 86 1007.0
20260505235327 59 204 9.6 20.9 0.00 0.00 0.00 86 1007.1
20260505234824 60 167 11.3 20.0 0.00 0.00 0.00 85 1007.0
20260505234322 59 186 8.7 20.0 0.00 0.00 0.00 86 1007.1
20260505233819 59 183 7.8 20.9 0.00 0.00 0.00 85 1006.6
20260505233317 60 209 12.2 21.7 0.00 0.00 0.00 85 1006.5
20260505232813 60 190 10.4 31.3 0.00 0.00 0.00 85 1006.6
20260505232311 59 188 25.2 28.7 0.00 0.00 0.00 85 1006.4
20260505231808 59 199 9.6 20.0 0.00 0.00 0.00 86 1006.5
20260505231306 59 197 18.2 20.0 0.00 0.00 0.00 86 1006.6
20260505230804 59 196 7.0 25.2 0.00 0.00 0.00 86 1006.5
20260505230300 59 182 8.7 20.0 0.00 0.00 0.00 85 1006.4
20260505225757 60 191 14.8 26.9 0.00 0.00 0.00 85 1006.4
20260505225254 60 167 4.3 23.5 0.00 0.00 0.00 85 1006.4
20260505224749 60 201 10.4 20.9 0.00 0.00 0.00 85 1006.5
20260505224247 60 180 8.7 22.6 0.00 0.00 0.00 85 1006.2
20260505223744 60 200 9.6 26.1 0.00 0.00 0.00 85 1006.2
20260505223241 60 180 14.8 25.2 0.00 0.00 0.00 85 1006.1
20260505222737 60 208 12.2 22.6 0.00 0.00 0.00 85 1005.9
20260505222233 60 191 9.6 20.9 0.00 0.00 0.00 86 1006.3
20260505221730 60 189 8.7 24.3 0.00 0.00 0.00 85 1006.3
20260505221227 60 198 5.2 29.5 0.00 0.00 0.00 84 1006.2
20260505220724 60 180 13.0 21.7 0.00 0.00 0.00 84 1006.1
20260505220221 60 192 6.1 25.2 0.00 0.00 0.00 84 1005.8
20260505215720 60 202 6.1 22.6 0.00 0.00 0.00 83 1006.2
20260505215217 61 187 8.7 22.6 0.00 0.00 0.00 84 1006.0
20260505214714 60 197 13.0 27.8 0.00 0.00 0.00 83 1006.0
20260505214212 61 184 4.3 23.5 0.00 0.00 0.00 83 1006.3
20260505213709 61 200 13.0 23.5 0.00 0.00 0.00 83 1006.1
20260505213206 61 167 5.2 21.7 0.00 0.00 0.00 83 1005.8
20260505212702 61 216 5.2 22.6 0.00 0.00 0.00 83 1005.8
20260505212159 61 201 14.8 25.2 0.00 0.00 0.00 84 1005.5
20260505211656 61 192 7.0 20.0 0.00 0.00 0.00 83 1005.8
20260505211153 61 210 13.0 23.5 0.00 0.00 0.00 83 1006.0
20260505210650 61 207 11.3 20.0 0.00 0.00 0.00 84 1005.6
20260505210147 60 202 11.3 24.3 0.00 0.00 0.00 84 1005.6
20260505205644 60 208 10.4 26.1 0.00 0.00 0.00 84 1005.9
20260505205142 61 198 8.7 16.5 0.00 0.00 0.00 83 1005.5
20260505204639 60 203 13.9 21.7 0.00 0.00 0.00 84 1005.8
20260505204137 61 207 7.0 22.6 0.00 0.00 0.00 84 1005.5
20260505203633 60 201 14.8 22.6 0.00 0.00 0.00 84 1005.6
20260505203130 61 198 6.1 18.2 0.00 0.00 0.00 84 1005.8
20260505202626 61 198 6.1 26.1 0.00 0.00 0.00 84 1005.6
20260505202122 61 190 7.8 20.9 0.00 0.00 0.00 84 1005.8
20260505201619 60 208 12.2 22.6 0.00 0.00 0.00 84 1005.8
20260505201117 61 204 7.8 24.3 0.00 0.00 0.00 84 1005.9
20260505200614 61 193 14.8 26.1 0.00 0.00 0.00 85 1005.8
20260505200111 61 211 9.6 20.9 0.00 0.00 0.00 85 1005.8
20260505195608 61 190 20.0 20.9 0.00 0.00 0.00 84 1006.0
20260505195105 60 190 6.1 20.9 0.00 0.00 0.00 85 1006.2
20260505194602 61 202 10.4 20.9 0.00 0.00 0.00 84 1006.1
20260505194058 60 200 7.0 23.5 0.00 0.00 0.00 85 1006.1
20260505193555 61 218 4.3 19.1 0.00 0.00 0.00 85 1006.3
20260505193052 61 192 5.2 13.9 0.00 0.00 0.00 84 1006.3
20260505192551 61 199 7.0 14.8 0.00 0.00 0.00 84 1006.5
20260505192048 61 180 8.7 20.0 0.00 0.00 0.00 85 1006.5
20260505191546 61 211 10.4 20.0 0.00 0.00 0.00 84 1006.8
20260505191044 61 192 7.8 19.1 0.00 0.00 0.00 85 1006.7
20260505190543 61 214 7.8 18.2 0.00 0.00 0.00 85 1006.9
20260505190040 61 200 9.6 15.6 0.00 0.00 0.00 84 1006.9
20260505185537 61 188 8.7 18.2 0.00 0.00 0.00 85 1007.2
20260505185033 61 219 4.3 21.7 0.00 0.00 0.00 86 1007.2
20260505184530 61 167 10.4 16.5 0.00 0.00 0.00 85 1007.2
20260505184027 61 190 4.3 15.6 0.00 0.00 0.00 84 1007.3
20260505183524 61 190 7.8 14.8 0.00 0.00 0.00 85 1007.5
20260505183021 61 193 7.0 14.8 0.00 0.00 0.00 85 1007.7
20260505182517 61 224 7.8 14.8 0.00 0.00 0.00 85 1007.5
20260505182014 61 211 8.7 12.2 0.00 0.00 0.00 85 1007.8
20260505181511 61 227 7.0 10.4 0.00 0.00 0.00 84 1007.7
20260505181008 60 194 6.1 14.8 0.00 0.00 0.00 86 1007.7
20260505180504 61 227 2.6 13.0 0.00 0.00 0.00 85 1008.0
20260505180001 61 211 6.1 11.3 0.00 0.00 0.00 86 1007.9
20260505175457 61 176 6.1 11.3 0.00 0.00 0.00 86 1007.9
20260505174954 60 193 3.5 11.3 0.00 0.00 0.00 86 1008.1
20260505174451 61 186 3.5 9.6 0.00 0.00 0.00 85 1008.3
20260505173947 61 171 3.5 13.0 0.00 0.00 0.00 86 1008.4
20260505173443 62 189 3.5 9.6 0.00 0.00 0.00 85 1008.4
20260505172941 62 187 4.3 11.3 0.00 0.00 0.00 85 1008.1
20260505172439 61 180 5.2 9.6 0.00 0.00 0.00 85 1008.1
20260505171938 61 179 5.2 8.7 0.00 0.00 0.00 86 1008.0
20260505171435 60 189 7.8 9.6 0.00 0.00 0.00 87 1008.4
20260505170932 60 210 8.7 13.0 0.00 0.00 0.00 87 1008.3
20260505170428 60 184 4.3 10.4 0.00 0.00 0.00 87 1008.3
20260505165924 60 194 6.1 13.0 0.00 0.00 0.00 87 1008.3
20260505165420 60 179 3.5 12.2 0.00 0.00 0.00 88 1008.6
20260505164915 60 161 4.3 15.6 0.00 0.00 0.00 87 1008.6
20260505164413 60 168 6.1 14.8 0.00 0.00 0.00 87 1008.5
20260505163911 61 185 4.3 9.6 0.00 0.00 0.00 86 1008.7
20260505163409 61 207 6.1 9.6 0.00 0.00 0.00 86 1008.5
20260505162908 60 191 7.0 11.3 0.00 0.00 0.00 86 1008.4
20260505162403 60 167 5.2 12.2 0.00 0.00 0.00 86 1008.6
20260505161900 60 205 7.8 14.8 0.00 0.00 0.00 86 1008.5
20260505161357 61 192 2.6 8.7 0.00 0.00 0.00 86 1008.7
20260505160854 61 196 5.2 13.9 0.00 0.00 0.00 86 1008.4
20260505160352 61 193 4.3 10.4 0.00 0.00 0.00 86 1008.7
20260505153331 61 218 3.5 10.4 0.00 0.00 0.00 87 1008.9
20260505152828 61 180 4.3 8.7 0.00 0.00 0.00 86 1008.8
20260505152325 61 171 4.3 10.4 0.00 0.00 0.00 86 1008.8
20260505151820 60 180 7.0 9.6 0.00 0.00 0.00 87 1008.9
20260505151317 60 184 5.2 11.3 0.00 0.00 0.00 88 1008.9
20260505150814 60 205 7.0 10.4 0.00 0.00 0.00 87 1009.1
20260505150311 60 208 5.2 11.3 0.00 0.00 0.00 88 1009.3